Regional Weather Roundup
Issued by NWS Little Rock, AR

Home | Current Version | Previous Version | Graphics & Text | Print | Product List | Glossary On
Versions: 1 2 3 4 5 6 7 8 9 10 11 12 13 14 15 16 17 18 19 20 21 22 23 24 25 26 27 28 29 30 31 32 33 34 35 36 37 38 39 40 41 42 43 44 45 46 47 48 49 50
000
ASUS44 KLZK 282205
RWRLZK

WEATHER ROUNDUP FOR ARKANSAS
NATIONAL WEATHER SERVICE LITTLE ROCK AR
500 PM CDT WED JUN 28 2017

NOTE: "FAIR" INDICATES FEW OR NO CLOUDS BELOW 12,000 FEET WITH NO
SIGNIFICANT WEATHER AND/OR OBSTRUCTIONS TO VISIBILITY.

ARZ001-003-010-029-282300-
NORTHWEST ARKANSAS

CITY           SKY/WX    TMP DP  RH WIND       PRES   REMARKS
FAYETTEVILLE   SUNNY     84  66  54 S18G25    29.92S HX  86
FORT SMITH     MOSUNNY   91  66  43 SE10      29.87F HX  93
HARRISON       MOSUNNY   85  64  49 S14       29.96S HX  86
BENTONVILLE    MOSUNNY   84  64  51 S10G21    29.93S HX  86
ROGERS         MOSUNNY   87  65  47 S14G28    29.93S HX  89
SILOAM SPGS    MOSUNNY   88  63  42 S15       29.90F HX  88
HIGHFILL       MOSUNNY   86  66  51 S15G22    29.92S HX  88
SPRINGDALE     PTSUNNY   84  66  54 S15       29.95S HX  86
$$

ARZ004-005-016-282300-
NORTH CENTRAL ARKANSAS

CITY           SKY/WX    TMP DP  RH WIND       PRES   REMARKS
BATESVILLE     SUNNY     86  64  48 S9        29.97S HX  87
FLIPPIN        SUNNY     86  61  42 S12       29.92F HX  86
MTN HOME       SUNNY     86  64  47 S10       29.94F HX  87
$$

ARZ040-041-282300-
WEST CENTRAL ARKANSAS

CITY           SKY/WX    TMP DP  RH WIND       PRES   REMARKS
MENA           MOSUNNY   90  68  48 SE5       29.94F HX  93
MOUNT IDA      MOSUNNY   87  62  43 VRB5      29.92F HX  87
$$

ARZ009-017-025-026-028-282300-
NORTHEAST ARKANSAS

CITY           SKY/WX    TMP DP  RH WIND       PRES   REMARKS
CORNING        LGT RAIN  86  70  58 S14G20    29.97F HX  90
JONESBORO      MOSUNNY   88  67  49 S16       29.96F HX  91
WALNUT RIDGE   SUNNY     88  64  45 S15       29.96S HX  89
BLYTHEVILLE    MOSUNNY   87  65  47 S13       29.98F HX  89
$$

ARZ022-023-033-042-044-282300-
CENTRAL ARKANSAS

CITY           SKY/WX    TMP DP  RH WIND       PRES   REMARKS
LITTLE ROCK    MOSUNNY   87  68  52 S9        29.94F HX  90
N LITTLE ROCK    N/A     85  69  56 S8G16     29.93  HX  89
JACKSONVILLE   MOSUNNY   88  70  55 SE9       29.94F HX  93
CONWAY           N/A     90  68  48 S13       29.91F HX  93
SEARCY         MOSUNNY   88  71  57 S9        29.97F HX  94
HOT SPRINGS    SUNNY     88  68  51 SE9       29.94F HX  91
RUSSELLVILLE     N/A     87  65  47 VRB5      29.92F HX  89
CLINTON        FAIR      86  66  51 S7        29.95S HX  88
$$

ARZ036-282300-
EAST ARKANSAS

CITY           SKY/WX    TMP DP  RH WIND       PRES   REMARKS
WEST MEMPHIS   SUNNY     86  66  51 S13       29.96F HX  88
$$

ARZ050-053-066-070-073-282300-
SOUTHWEST ARKANSAS

CITY           SKY/WX    TMP DP  RH WIND       PRES   REMARKS
CAMDEN         MOSUNNY   88  66  48 S6        29.94S HX  90
TEXARKANA      MOSUNNY   89  66  46 S9        29.92F HX  91
EL DORADO      MOSUNNY   88  65  46 SE9       29.94F HX  90
DE QUEEN       SUNNY     89  69  51 S12       29.89F HX  93
$$

ARZ056-057-069-282300-
SOUTHEAST ARKANSAS

CITY           SKY/WX    TMP DP  RH WIND       PRES   REMARKS
PINE BLUFF     MOSUNNY   87  69  54 SE10      29.96S HX  91
STUTTGART      MOSUNNY   88  61  40 S12       29.97F HX  88
MONTICELLO     MOSUNNY   87  66  49 SE8       29.96F HX  89

$$





USA.gov is the U.S. government's official web portal to all federal, state and local government web resources and services.